Weather Service Report


594 
ASUS42 KRAH 300310
RWRRAH
NORTH CAROLINA WEATHER ROUNDUP
NATIONAL WEATHER SERVICE RALEIGH NC
1100 PM EDT SAT AUG 29 2015

NOTE: "FAIR" INDICATES FEW OR NO CLOUDS BELOW 12,000 FEET WITH NO
SIGNIFICANT WEATHER AND/OR OBSTRUCTIONS TO VISIBILITY.

NCZ001-053-055-056-065-067-300400-
WESTERN NORTH CAROLINA
  
CITY           SKY/WX    TMP DP  RH WIND       PRES   REMARKS
ASHEVILLE      CLOUDY    70  60  70 SE5       30.24S                  
JEFFERSON      CLOUDY    64  54  69 CALM      30.28S                  
MORGANTON      CLOUDY    69  63  81 CALM      30.23F                  
HICKORY        CLOUDY    73  60  63 S3        30.18F                  
RUTHERFORDTON  CLOUDY    71  61  69 CALM      30.19S                  
MOUNT AIRY     MOCLDY    71  64  78 CALM      30.21S                  
BOONE          CLOUDY    63  56  78 CALM      30.29S                  
$$
 
NCZ021-022-025-041-071-084-088-300400-
CENTRAL NORTH CAROLINA
  
CITY           SKY/WX    TMP DP  RH WIND       PRES   REMARKS
CHARLOTTE      CLOUDY    73  61  65 W3        30.17F                  
GREENSBORO     MOCLDY    74  60  61 CALM      30.17S                  
WINSTON-SALEM  MOCLDY    73  63  70 CALM      30.18F                  
RALEIGH-DURHAM CLOUDY    71  63  75 CALM      30.16R                  
FORT BRAGG     CLOUDY    72  66  81 CALM      30.14S                  
FAYETTEVILLE   CLOUDY    74  61  63 CALM      30.14S                  
BURLINGTON     CLOUDY    70  65  84 CALM      30.16S                  
LAURINBURG     CLOUDY    71  63  75 CALM      30.16R                  
$$
 
NCZ011-015-027-028-043-044-047-080-103-300400-
NORTHEASTERN NORTH CAROLINA
  
CITY           SKY/WX    TMP DP  RH WIND       PRES   REMARKS
ROCKY MT-WILSO CLOUDY    74  62  66 CALM      30.15S                  
GREENVILLE     CLOUDY    70  66  88 CALM      30.16S                  
WASHINGTON     CLOUDY    68  65  90 CALM      30.14F                  
ELIZABETH CITY CLOUDY    74  67  78 N6        30.14S                  
MANTEO         CLOUDY    76  69  80 NE8       30.13S                  
CAPE HATTERAS  PTCLDY    76  72  87 NE7       30.11S                  
$$
 
NCZ078-087-090-091-093-098-101-300400-
SOUTHEASTERN NORTH CAROLINA
  
CITY           SKY/WX    TMP DP  RH WIND       PRES   REMARKS
LUMBERTON      CLOUDY    70  64  81 CALM      30.14S                  
GOLDSBORO      CLOUDY    72  63  73 CALM      30.14R                  
KINSTON        CLOUDY    70  65  84 CALM      30.16R                  
KENANSVILLE      N/A     67  65  94 CALM      30.16S                  
NEW BERN       CLOUDY    73  64  73 CALM      30.16R                  
CHERRY POINT   CLOUDY    75  65  70 N5        30.15R                  
BEAUFORT       CLOUDY    72  67  84 N3        30.13S                  
JACKSONVILLE   MOCLDY    75  63  66 E3        30.14R                  
WILMINGTON     PTCLDY    73  66  78 NE5       30.14R                  
$$


Return to Home page


Western Regional Climate Center, wrcc@dri.edu